Home > Weather > Chania > Past weeks

Flag for Greece Past Weather in Chania, Crete, Greece — Yesterday and Last 2 Weeks

Now
79 °F

Sunny.


Feels Like: 79 °F
Forecast: 64 / 76 °F
Wind: 14 mph from Northwest

Location: Souda Airport

Current Time: May 24, 2016 at 6:49:12 PM

Latest Report: May 24, 2016 at 5:50 PM


Visibility: 10 mi

Pressure: 29.92 "Hg

Humidity: 45%

Dew Point: 55 °F

Location of ChaniaLocation

Past Weather in Chania — Graph

°F

Chania Temperature Yesterday

Maximum temperature yesterday: 75 °F (at 12:50 PM)
Minimum temperature yesterday: 61 °F (at 5:50 AM)
Average temperature yesterday: 68 °F

High & Low Weather Summary for the Past Weeks

 TemperatureHumidityPressure
High88 °F (May 12, 3:50 PM)94% (May 10, 4:50 AM)30.07 "Hg (May 10, 4:50 AM)
Low55 °F (May 19, 5:20 AM)34% (May 11, 12:20 PM)29.65 "Hg (May 13, 2:50 AM)
Average69 °F67%29.92 "Hg
* Reported May 9 5:20 PM — May 24 5:50 PM, Chania, Weather by CustomWeather, © 2016

Note: Actual official high and low records may vary slightly from our data, if they occured in-between our weather recording intervals... More about our weather records

Advertising

Chania Weather History for the Previous 24 Hours

Scroll right to see more
 ConditionsComfort  
Time TempWeatherWind HumidityBarometerVisibility
5:50 PM
Tue, May 24
79 °FSunny.14 mph45%29.92 "Hg10 mi
5:20 PM77 °FSunny.14 mph44%29.92 "Hg10 mi
4:50 PM77 °FSunny.28 mph51%29.92 "Hg10 mi
4:20 PM77 °FSunny.23 mph51%29.92 "Hg10 mi
3:50 PM77 °FSunny.23 mph51%29.92 "Hg10 mi
3:20 PM77 °FSunny.25 mph51%29.95 "Hg10 mi
2:50 PM77 °FSunny.23 mph51%29.95 "Hg10 mi
2:20 PM77 °FSunny.23 mph51%29.95 "Hg10 mi
1:50 PM77 °FSunny.20 mph51%29.95 "Hg10 mi
1:20 PM77 °FSunny.22 mph47%29.95 "Hg10 mi
12:50 PM77 °FSunny.22 mph47%29.95 "Hg10 mi
12:20 PM77 °FSunny.25 mph44%29.95 "Hg10 mi
11:50 AM77 °FSunny.25 mph44%29.95 "Hg10 mi
11:20 AM77 °FSunny.21 mph47%29.95 "Hg10 mi
10:50 AM77 °FSunny.17 mph47%29.95 "Hg10 mi
10:20 AM75 °FSunny.20 mph41%29.95 "Hg10 mi
9:50 AM75 °FSunny.21 mph41%29.95 "Hg10 mi
9:20 AM72 °FSunny.20 mph44%29.95 "Hg10 mi
8:50 AM72 °FSunny.17 mph44%29.95 "Hg10 mi
8:20 AM66 °FSunny.9 mph60%29.98 "Hg10 mi
7:50 AM66 °FSunny.5 mph60%29.98 "Hg10 mi
7:20 AM64 °FSunny.5 mph52%29.98 "Hg10 mi
6:50 AM61 °FClear.6 mph63%29.95 "Hg10 mi
6:20 AM61 °FClear.7 mph68%29.95 "Hg10 mi
5:50 AM61 °FPassing clouds.6 mph68%29.95 "HgN/A
5:20 AM61 °FClear.6 mph68%29.95 "Hg10 mi
4:50 AM61 °FClear.7 mph68%29.98 "Hg10 mi
4:20 AM61 °FClear.7 mph68%29.98 "Hg10 mi
3:50 AM61 °FClear.7 mph72%29.98 "Hg10 mi
3:20 AM59 °FClear.7 mph68%29.98 "Hg10 mi
2:50 AM61 °FClear.6 mph63%29.98 "Hg10 mi
2:20 AM61 °FClear.6 mph68%29.98 "Hg10 mi
1:50 AM61 °FClear.5 mph68%29.98 "Hg10 mi
1:20 AM61 °FClear.5 mph72%29.98 "Hg10 mi
12:50 AM61 °FClear.5 mph72%29.98 "Hg10 mi
12:20 AM61 °FClear.7 mph83%30.01 "Hg10 mi
11:50 PM
Mon, May 23
63 °FClear.8 mph77%30.01 "Hg10 mi
11:20 PM63 °FClear.7 mph77%30.01 "Hg10 mi
10:50 PM63 °FClear.8 mph77%30.01 "Hg10 mi
10:20 PM64 °FClear.8 mph78%30.01 "Hg10 mi
9:50 PM64 °FPassing clouds.7 mph73%30.01 "HgN/A
9:20 PM66 °FPassing clouds.10 mph60%30.01 "HgN/A
8:50 PM68 °FPassing clouds.10 mph69%30.01 "HgN/A
8:20 PM70 °FPassing clouds.8 mph69%30.01 "HgN/A
7:50 PM72 °FSunny.7 mph61%30.01 "Hg10 mi
7:20 PM73 °FSunny.9 mph57%30.01 "Hg10 mi
6:50 PM73 °FSunny.9 mph53%30.01 "Hg10 mi
6:20 PM73 °FSunny.10 mph44%30.01 "Hg10 mi
Weather by CustomWeather, © 2016

See weather overviewHow to use our weather pages